User: anonymous   Login
Location: Kolin
(50.0330°N, 15.2000°E)
Time: 19:39:32
(UTC+02:00)
Language:

HuskySat-1 - Orbit

View from above orbital plane
View from above orbital plane
View from above satellite
View from above satellite

Ground track
Ground track

The orbit data is extracted from the following two-line orbital elements,

1 45117U 19071G   22224.17688466  .00039481  00000-0  66689-3 0  9997
2 45117  51.6358 138.5115 0007660  30.7006 329.4430 15.51192344142071
Epoch (UTC): 12 August 2022 04:14:42
Eccentricity: 0.0007660
inclination: 51.6358°
perigee height: 408 km
apogee height: 418 km
right ascension of ascending node: 138.5115°
argument of perigee: 30.7006°
revolutions per day: 15.51192344
mean anomaly at epoch: 329.4430°
orbit number at epoch: 14207

The dashed part of the orbit path shows where the satellite is in the earth's shadow,  

DLR